User: anonymous   Login
Location: Charleston
(38.3500°N, 81.6330°W)
Time: 18:39:33
(UTC-04:00)
Language:

Cosmos 1812 Rocket - Orbit

View from above orbital plane
View from above orbital plane
View from above satellite
View from above satellite

Ground track
Ground track

The orbit data is extracted from the following two-line orbital elements,

1 17296U 87003B   17116.88770989 +.00000149 +00000-0 +15204-4 0  9995
2 17296 082.5299 072.8279 0019967 034.0157 326.2333 14.83180241614420
Epoch (UTC): 26 April 2017 21:18:18
Eccentricity: 0.0019967
inclination: 82.5299°
perigee height: 605 km
apogee height: 633 km
right ascension of ascending node: 72.8279°
argument of perigee: 34.0157°
revolutions per day: 14.83180241
mean anomaly at epoch: 326.2333°
orbit number at epoch: 61442

The dashed part of the orbit path shows where the satellite is in the earth's shadow,  

DLR